Station Historical Data
Daily Summary for July 7, 2017 Units:  English    Metric   Both
« Previous Day
Next Day »
Daily Weekly Monthly Yearly Custom
  High: Low: Average:
Temperature: 94.1 °F 70.5 °F 81.3 °F
Dew Point: 62.7 °F 44.5 °F 54.4 °F
Humidity: 67 % 23 % 41 %
Wind Speed: 10.0 mph 0.0 mph 2.4 mph
Wind Gust: 17.0 mph - -
Wind:- - SSW
Pressure: 30.01 in 29.90 in -
Precipitation: 0.00 in    
Historical Graphs
 
 
Tabular Data for July 7, 2017
Time Temperature Dew Point Pressure Wind Wind Speed Wind Gust Humidity Rainfall Rate (Hourly) solar
00:04 75.3 °F 53.1 °F 30.00 in Calm   9.0 mph 46 % 0.00 in 0.00 W/m2
00:09 75.3 °F 53.1 °F 29.99 in East 5.0 mph 9.0 mph 46 % 0.00 in 0.00 W/m2
00:14 75.2 °F 53.0 °F 29.99 in East 8.0 mph 9.0 mph 46 % 0.00 in 0.00 W/m2
00:19 75.2 °F 53.0 °F 30.00 in East 6.0 mph 8.0 mph 46 % 0.00 in 0.00 W/m2
00:21 75.2 °F 53.0 °F 29.99 in ESE 1.0 mph 9.0 mph 46 % 0.00 in 0.00 W/m2
00:26 75.1 °F 52.9 °F 29.99 in Calm   9.0 mph 46 % 0.00 in 0.00 W/m2
00:31 75.1 °F 52.9 °F 29.99 in Calm   6.0 mph 46 % 0.00 in 0.00 W/m2
00:36 75.0 °F 53.4 °F 29.99 in East 2.0 mph 6.0 mph 47 % 0.00 in 0.00 W/m2
00:41 75.0 °F 53.4 °F 29.99 in ESE 1.0 mph 8.0 mph 47 % 0.00 in 0.00 W/m2
00:46 74.9 °F 53.3 °F 29.99 in ESE 4.0 mph 12.0 mph 47 % 0.00 in 0.00 W/m2
00:51 74.9 °F 53.3 °F 29.99 in ESE 9.0 mph 12.0 mph 47 % 0.00 in 0.00 W/m2
00:56 74.8 °F 53.2 °F 29.99 in ESE 2.0 mph 7.0 mph 47 % 0.00 in 0.00 W/m2
01:01 74.8 °F 53.2 °F 29.99 in East 1.0 mph 9.0 mph 47 % 0.00 in 0.00 W/m2
01:06 74.8 °F 53.8 °F 29.99 in ESE 8.0 mph 8.0 mph 48 % 0.00 in 0.00 W/m2
01:11 74.8 °F 53.8 °F 29.99 in East 7.0 mph 11.0 mph 48 % 0.00 in 0.00 W/m2
01:16 74.7 °F 53.7 °F 29.99 in Calm   8.0 mph 48 % 0.00 in 0.00 W/m2
01:21 74.7 °F 53.7 °F 29.99 in Calm   7.0 mph 48 % 0.00 in 0.00 W/m2
01:26 74.7 °F 53.7 °F 29.99 in Calm   5.0 mph 48 % 0.00 in 0.00 W/m2
01:31 74.6 °F 54.2 °F 29.99 in Calm   5.0 mph 49 % 0.00 in 0.00 W/m2
01:36 74.6 °F 53.6 °F 29.99 in East 2.0 mph 7.0 mph 48 % 0.00 in 0.00 W/m2
01:41 74.5 °F 53.5 °F 29.99 in Calm   7.0 mph 48 % 0.00 in 0.00 W/m2
01:46 74.4 °F 54.0 °F 29.98 in East 5.0 mph 7.0 mph 49 % 0.00 in 0.00 W/m2
01:52 74.3 °F 53.9 °F 29.98 in Calm   8.0 mph 49 % 0.00 in 0.00 W/m2
01:57 74.2 °F 53.8 °F 29.98 in ESE 6.0 mph 8.0 mph 49 % 0.00 in 0.00 W/m2
02:02 74.1 °F 53.7 °F 29.98 in ESE 4.0 mph 8.0 mph 49 % 0.00 in 0.00 W/m2
02:07 74.0 °F 53.7 °F 29.98 in East 2.0 mph 8.0 mph 49 % 0.00 in 0.00 W/m2
02:12 73.9 °F 53.6 °F 29.98 in East 5.0 mph 8.0 mph 49 % 0.00 in 0.00 W/m2
02:17 73.8 °F 54.0 °F 29.98 in East 7.0 mph 8.0 mph 50 % 0.00 in 0.00 W/m2
02:22 73.7 °F 53.9 °F 29.98 in Calm   8.0 mph 50 % 0.00 in 0.00 W/m2
02:27 73.6 °F 53.8 °F 29.98 in Calm   5.0 mph 50 % 0.00 in 0.00 W/m2
02:32 73.5 °F 53.7 °F 29.98 in ESE 5.0 mph 5.0 mph 50 % 0.00 in 0.00 W/m2
02:37 73.5 °F 54.3 °F 29.98 in ESE 4.0 mph 4.0 mph 51 % 0.00 in 0.00 W/m2
02:42 73.4 °F 54.2 °F 29.98 in Calm   6.0 mph 51 % 0.00 in 0.00 W/m2
02:47 73.4 °F 54.2 °F 29.98 in Calm   7.0 mph 51 % 0.00 in 0.00 W/m2
02:52 73.3 °F 54.1 °F 29.98 in Calm   4.0 mph 51 % 0.00 in 0.00 W/m2
02:57 73.3 °F 54.1 °F 29.98 in Calm   6.0 mph 51 % 0.00 in 0.00 W/m2
03:02 73.2 °F 54.0 °F 29.98 in Calm   2.0 mph 51 % 0.00 in 0.00 W/m2
03:07 73.1 °F 53.9 °F 29.98 in Calm   1.0 mph 51 % 0.00 in 0.00 W/m2
03:12 73.0 °F 53.8 °F 29.98 in Calm   5.0 mph 51 % 0.00 in 0.00 W/m2
03:13 73.0 °F 53.8 °F 29.98 in ESE 5.0 mph 5.0 mph 51 % 0.00 in 0.00 W/m2
03:18 73.0 °F 54.4 °F 29.98 in Calm   5.0 mph 52 % 0.00 in 0.00 W/m2
03:23 72.9 °F 53.7 °F 29.98 in Calm   2.0 mph 51 % 0.00 in 0.00 W/m2
03:28 72.8 °F 53.6 °F 29.98 in ESE 4.0 mph 5.0 mph 51 % 0.00 in 0.00 W/m2
03:33 72.7 °F 54.1 °F 29.98 in Calm   5.0 mph 52 % 0.00 in 0.00 W/m2
03:38 72.6 °F 54.0 °F 29.98 in Calm   1.0 mph 52 % 0.00 in 0.00 W/m2
03:43 72.5 °F 53.9 °F 29.98 in Calm     52 % 0.00 in 0.00 W/m2
03:48 72.4 °F 54.3 °F 29.98 in Calm     53 % 0.00 in 0.00 W/m2
03:53 72.2 °F 54.1 °F 29.98 in Calm     53 % 0.00 in 0.00 W/m2
03:58 72.1 °F 54.0 °F 29.98 in Calm   1.0 mph 53 % 0.00 in 0.00 W/m2
04:03 72.0 °F 54.0 °F 29.98 in Calm   1.0 mph 53 % 0.00 in 0.00 W/m2
04:08 71.8 °F 53.8 °F 29.98 in Calm   1.0 mph 53 % 0.00 in 0.00 W/m2
04:13 71.5 °F 53.5 °F 29.98 in Calm   1.0 mph 53 % 0.00 in 0.00 W/m2
04:18 71.2 °F 53.2 °F 29.98 in Calm   1.0 mph 53 % 0.00 in 0.00 W/m2
04:23 71.0 °F 53.5 °F 29.98 in Calm   2.0 mph 54 % 0.00 in 0.00 W/m2
04:28 70.8 °F 53.3 °F 29.98 in Calm   1.0 mph 54 % 0.00 in 0.00 W/m2
04:33 70.8 °F 53.3 °F 29.98 in Calm   1.0 mph 54 % 0.00 in 0.00 W/m2
04:38 70.8 °F 53.8 °F 29.98 in Calm   1.0 mph 55 % 0.00 in 0.00 W/m2
04:43 70.8 °F 53.8 °F 29.98 in Calm     55 % 0.00 in 0.00 W/m2
04:48 70.8 °F 53.3 °F 29.98 in Calm     54 % 0.00 in 0.00 W/m2
04:53 70.8 °F 53.3 °F 29.99 in Calm   6.0 mph 54 % 0.00 in 0.00 W/m2
04:58 70.8 °F 53.3 °F 29.99 in East 5.0 mph 7.0 mph 54 % 0.00 in 0.00 W/m2
05:03 70.8 °F 53.3 °F 29.99 in Calm   6.0 mph 54 % 0.00 in 0.00 W/m2
05:08 70.8 °F 53.3 °F 29.99 in East 1.0 mph 6.0 mph 54 % 0.00 in 0.00 W/m2
05:13 70.8 °F 53.3 °F 29.99 in Calm   5.0 mph 54 % 0.00 in 0.00 W/m2
05:18 70.8 °F 53.3 °F 29.99 in Calm   4.0 mph 54 % 0.00 in 0.00 W/m2
05:23 70.8 °F 53.8 °F 29.99 in Calm   7.0 mph 55 % 0.00 in 0.00 W/m2
05:28 70.8 °F 53.3 °F 29.99 in East 4.0 mph 7.0 mph 54 % 0.00 in 0.00 W/m2
05:29 70.8 °F 53.3 °F 29.99 in East 5.0 mph 7.0 mph 54 % 0.00 in 0.00 W/m2
05:34 70.7 °F 53.3 °F 29.99 in East 4.0 mph 7.0 mph 54 % 0.00 in 0.00 W/m2
05:39 70.7 °F 53.3 °F 29.99 in Calm   7.0 mph 54 % 0.00 in 0.00 W/m2
05:44 70.6 °F 53.2 °F 29.99 in Calm   6.0 mph 54 % 0.00 in 5.00 W/m2
05:45 70.6 °F 53.7 °F 29.99 in Calm   6.0 mph 55 % 0.00 in 5.00 W/m2
05:50 70.6 °F 53.2 °F 29.99 in Calm   6.0 mph 54 % 0.00 in 7.00 W/m2
05:55 70.6 °F 53.2 °F 29.99 in East 5.0 mph 7.0 mph 54 % 0.00 in 7.00 W/m2
06:00 70.6 °F 53.2 °F 29.99 in Calm   8.0 mph 54 % 0.00 in 9.00 W/m2
06:05 70.6 °F 53.7 °F 29.99 in Calm   7.0 mph 55 % 0.00 in 12.00 W/m2
06:10 70.6 °F 53.7 °F 29.99 in Calm   7.0 mph 55 % 0.00 in 14.00 W/m2
06:15 70.6 °F 53.7 °F 29.99 in East 1.0 mph 7.0 mph 55 % 0.00 in 16.00 W/m2
06:20 70.6 °F 53.7 °F 29.99 in East 2.0 mph 7.0 mph 55 % 0.00 in 25.00 W/m2
06:25 70.6 °F 54.2 °F 29.99 in Calm   8.0 mph 56 % 0.00 in 35.00 W/m2
06:30 70.6 °F 54.2 °F 29.99 in Calm   12.0 mph 56 % 0.00 in 44.00 W/m2
06:35 70.5 °F 54.1 °F 30.00 in East 6.0 mph 8.0 mph 56 % 0.00 in 58.00 W/m2
06:45 70.5 °F 54.5 °F 30.00 in East 5.0 mph 8.0 mph 57 % 0.00 in 88.00 W/m2
06:50 70.5 °F 54.5 °F 30.00 in Calm   9.0 mph 57 % 0.00 in 104.00 W/m2
06:55 70.5 °F 55.0 °F 30.00 in East 6.0 mph 8.0 mph 58 % 0.00 in 123.00 W/m2
07:00 70.5 °F 55.0 °F 30.00 in East 6.0 mph 9.0 mph 58 % 0.00 in 142.00 W/m2
07:05 70.5 °F 55.5 °F 30.00 in Calm   8.0 mph 59 % 0.00 in 162.00 W/m2
07:10 70.5 °F 55.5 °F 30.00 in East 2.0 mph 7.0 mph 59 % 0.00 in 181.00 W/m2
07:15 70.6 °F 55.6 °F 30.00 in East 1.0 mph 7.0 mph 59 % 0.00 in 197.00 W/m2
07:20 70.6 °F 56.1 °F 30.00 in East 2.0 mph 8.0 mph 60 % 0.00 in 218.00 W/m2
07:25 70.7 °F 56.2 °F 30.00 in East 5.0 mph 8.0 mph 60 % 0.00 in 239.00 W/m2
07:30 70.7 °F 56.6 °F 30.00 in East 5.0 mph 8.0 mph 61 % 0.00 in 258.00 W/m2
07:35 70.8 °F 56.7 °F 30.00 in East 4.0 mph 8.0 mph 61 % 0.00 in 278.00 W/m2
07:40 70.8 °F 56.7 °F 30.00 in East 4.0 mph 8.0 mph 61 % 0.00 in 294.00 W/m2
07:45 70.9 °F 56.8 °F 30.00 in East 5.0 mph 8.0 mph 61 % 0.00 in 311.00 W/m2
07:50 71.1 °F 57.4 °F 30.00 in East 6.0 mph 8.0 mph 62 % 0.00 in 327.00 W/m2
07:55 71.2 °F 57.5 °F 30.01 in Calm   5.0 mph 62 % 0.00 in 341.00 W/m2
08:00 71.3 °F 58.1 °F 30.00 in East 4.0 mph 5.0 mph 63 % 0.00 in 357.00 W/m2
08:05 71.5 °F 58.3 °F 30.01 in East 4.0 mph 5.0 mph 63 % 0.00 in 374.00 W/m2
08:10 71.7 °F 58.9 °F 30.00 in Calm   5.0 mph 64 % 0.00 in 390.00 W/m2
08:11 71.7 °F 58.9 °F 30.01 in East 2.0 mph 2.0 mph 64 % 0.00 in 392.00 W/m2
08:16 72.0 °F 59.6 °F 30.01 in East 4.0 mph 5.0 mph 65 % 0.00 in 408.00 W/m2
08:21 72.3 °F 59.9 °F 30.00 in East 1.0 mph 1.0 mph 65 % 0.00 in 424.00 W/m2
08:26 72.6 °F 60.6 °F 30.00 in East 5.0 mph 5.0 mph 66 % 0.00 in 441.00 W/m2
08:31 73.0 °F 61.0 °F 30.00 in East 4.0 mph 4.0 mph 66 % 0.00 in 454.00 W/m2
08:36 73.4 °F 61.8 °F 30.00 in ENE 2.0 mph 4.0 mph 67 % 0.00 in 471.00 W/m2
08:41 73.8 °F 61.7 °F 30.00 in ENE 1.0 mph 1.0 mph 66 % 0.00 in 487.00 W/m2
08:46 74.1 °F 62.0 °F 30.00 in ENE 2.0 mph 4.0 mph 66 % 0.00 in 503.00 W/m2
08:51 74.5 °F 61.5 °F 30.00 in NE 1.0 mph 6.0 mph 64 % 0.00 in 517.00 W/m2
08:56 74.9 °F 61.5 °F 30.00 in Calm   1.0 mph 63 % 0.00 in 533.00 W/m2
09:01 75.3 °F 60.9 °F 30.00 in NNE 2.0 mph 6.0 mph 61 % 0.00 in 547.00 W/m2
09:06 75.7 °F 60.8 °F 30.00 in North 4.0 mph 6.0 mph 60 % 0.00 in 563.00 W/m2
09:11 76.0 °F 59.7 °F 30.00 in North 4.0 mph 4.0 mph 57 % 0.00 in 575.00 W/m2
09:16 76.4 °F 59.1 °F 30.00 in North 3.0 mph 4.0 mph 55 % 0.00 in 589.00 W/m2
09:21 76.7 °F 58.3 °F 30.00 in North 2.0 mph 5.0 mph 53 % 0.00 in 603.00 W/m2
09:26 77.1 °F 58.7 °F 30.00 in NNE 4.0 mph 4.0 mph 53 % 0.00 in 619.00 W/m2
09:31 77.5 °F 58.5 °F 30.00 in North 2.0 mph 3.0 mph 52 % 0.00 in 633.00 W/m2
09:36 78.0 °F 56.7 °F 29.99 in Calm   3.0 mph 48 % 0.00 in 645.00 W/m2
09:41 78.7 °F 57.4 °F 29.99 in Calm   6.0 mph 48 % 0.00 in 661.00 W/m2
09:46 79.5 °F 57.5 °F 29.99 in North 1.0 mph 2.0 mph 47 % 0.00 in 675.00 W/m2
09:51 80.3 °F 55.8 °F 29.99 in Calm   3.0 mph 43 % 0.00 in 684.00 W/m2
09:56 81.1 °F 55.9 °F 29.99 in North 1.0 mph 5.0 mph 42 % 0.00 in 698.00 W/m2
10:01 81.8 °F 56.5 °F 29.99 in Calm   6.0 mph 42 % 0.00 in 710.00 W/m2
10:06 82.3 °F 55.6 °F 29.99 in North 3.0 mph 4.0 mph 40 % 0.00 in 722.00 W/m2
10:11 82.8 °F 58.0 °F 29.99 in NNW 4.0 mph 5.0 mph 43 % 0.00 in 733.00 W/m2
10:16 83.2 °F 57.1 °F 29.99 in NNW 4.0 mph 6.0 mph 41 % 0.00 in 747.00 W/m2
10:17 83.3 °F 57.8 °F 29.99 in North 3.0 mph 8.0 mph 42 % 0.00 in 749.00 W/m2
10:22 83.7 °F 58.2 °F 29.99 in Calm   5.0 mph 42 % 0.00 in 759.00 W/m2
10:27 84.0 °F 55.7 °F 29.99 in NNW 6.0 mph 8.0 mph 38 % 0.00 in 772.00 W/m2
10:32 84.3 °F 56.7 °F 29.99 in NNW 1.0 mph 6.0 mph 39 % 0.00 in 782.00 W/m2
10:37 84.6 °F 55.5 °F 29.99 in Calm   11.0 mph 37 % 0.00 in 793.00 W/m2
10:42 84.9 °F 56.5 °F 29.99 in North 4.0 mph 5.0 mph 38 % 0.00 in 802.00 W/m2
10:47 85.2 °F 57.5 °F 29.99 in Calm   5.0 mph 39 % 0.00 in 812.00 W/m2
10:52 85.5 °F 54.0 °F 29.99 in NNW 1.0 mph 10.0 mph 34 % 0.00 in 823.00 W/m2
10:57 85.8 °F 56.5 °F 29.99 in North 6.0 mph 10.0 mph 37 % 0.00 in 831.00 W/m2
11:02 86.2 °F 54.6 °F 29.99 in NNW 3.0 mph 4.0 mph 34 % 0.00 in 840.00 W/m2
11:07 86.5 °F 55.6 °F 29.99 in Calm   10.0 mph 35 % 0.00 in 849.00 W/m2
11:12 86.7 °F 54.2 °F 29.99 in NNW 7.0 mph 10.0 mph 33 % 0.00 in 856.00 W/m2
11:17 87.1 °F 55.4 °F 29.99 in North 5.0 mph 13.0 mph 34 % 0.00 in 865.00 W/m2
11:22 87.3 °F 55.5 °F 29.99 in NNW 4.0 mph 10.0 mph 34 % 0.00 in 874.00 W/m2
11:27 87.6 °F 55.0 °F 29.99 in North 6.0 mph 10.0 mph 33 % 0.00 in 881.00 W/m2
11:32 87.8 °F 55.2 °F 29.99 in NNW 6.0 mph 6.0 mph 33 % 0.00 in 886.00 W/m2
11:38 88.1 °F 56.2 °F 29.99 in Calm   4.0 mph 34 % 0.00 in 891.00 W/m2
11:43 88.4 °F 57.3 °F 29.99 in NW 1.0 mph 7.0 mph 35 % 0.00 in 900.00 W/m2
11:48 88.7 °F 56.8 °F 29.99 in NW 3.0 mph 5.0 mph 34 % 0.00 in 904.00 W/m2
11:53 89.0 °F 59.4 °F 29.99 in West 5.0 mph 7.0 mph 37 % 0.00 in 907.00 W/m2
11:58 89.2 °F 58.8 °F 29.98 in Calm   9.0 mph 36 % 0.00 in 912.00 W/m2
12:03 89.6 °F 59.9 °F 29.98 in West 1.0 mph 5.0 mph 37 % 0.00 in 918.00 W/m2
12:08 89.9 °F 60.2 °F 29.98 in Calm   5.0 mph 37 % 0.00 in 919.00 W/m2
12:13 90.2 °F 61.2 °F 29.98 in WNW 4.0 mph 6.0 mph 38 % 0.00 in 926.00 W/m2
12:18 90.6 °F 60.8 °F 29.98 in West 3.0 mph 8.0 mph 37 % 0.00 in 928.00 W/m2
12:23 90.9 °F 61.0 °F 29.98 in West 5.0 mph 6.0 mph 37 % 0.00 in 933.00 W/m2
12:28 91.1 °F 62.0 °F 29.98 in West 3.0 mph 5.0 mph 38 % 0.00 in 933.00 W/m2
12:33 91.1 °F 61.2 °F 29.98 in Calm   5.0 mph 37 % 0.00 in 932.00 W/m2
12:38 91.1 °F 62.7 °F 29.98 in WNW 1.0 mph 10.0 mph 39 % 0.00 in 940.00 W/m2
12:43 91.1 °F 60.5 °F 29.97 in Calm   6.0 mph 36 % 0.00 in 940.00 W/m2
12:48 91.3 °F 62.2 °F 29.97 in WNW 3.0 mph 9.0 mph 38 % 0.00 in 942.00 W/m2
12:53 91.4 °F 60.7 °F 29.97 in Calm   5.0 mph 36 % 0.00 in 940.00 W/m2
12:58 91.4 °F 61.5 °F 29.97 in NNW 2.0 mph 11.0 mph 37 % 0.00 in 944.00 W/m2
13:03 91.6 °F 60.9 °F 29.97 in NW 7.0 mph 11.0 mph 36 % 0.00 in 944.00 W/m2
13:08 91.6 °F 61.7 °F 29.97 in WNW 3.0 mph 5.0 mph 37 % 0.00 in 942.00 W/m2
13:13 91.7 °F 60.2 °F 29.97 in NNW 4.0 mph 9.0 mph 35 % 0.00 in 942.00 W/m2
13:18 92.0 °F 60.5 °F 29.96 in NW 5.0 mph 9.0 mph 35 % 0.00 in 944.00 W/m2
13:23 92.3 °F 59.9 °F 29.96 in Calm   6.0 mph 34 % 0.00 in 940.00 W/m2
13:28 92.4 °F 60.0 °F 29.96 in WNW 3.0 mph 5.0 mph 34 % 0.00 in 940.00 W/m2
13:33 92.6 °F 59.3 °F 29.96 in NW 5.0 mph 5.0 mph 33 % 0.00 in 939.00 W/m2
13:38 92.6 °F 59.3 °F 29.96 in NW 4.0 mph 7.0 mph 33 % 0.00 in 937.00 W/m2
13:43 92.7 °F 58.5 °F 29.96 in Calm   8.0 mph 32 % 0.00 in 937.00 W/m2
13:48 92.8 °F 59.5 °F 29.96 in Calm   6.0 mph 33 % 0.00 in 928.00 W/m2
13:53 92.9 °F 59.6 °F 29.95 in Calm   5.0 mph 33 % 0.00 in 926.00 W/m2
13:58 93.2 °F 58.1 °F 29.95 in NNW 3.0 mph 12.0 mph 31 % 0.00 in 921.00 W/m2
14:03 93.4 °F 57.4 °F 29.95 in WNW 3.0 mph 7.0 mph 30 % 0.00 in 918.00 W/m2
14:08 93.4 °F 55.5 °F 29.95 in NW 5.0 mph 9.0 mph 28 % 0.00 in 916.00 W/m2
14:13 93.4 °F 56.4 °F 29.95 in WNW 4.0 mph 11.0 mph 29 % 0.00 in 909.00 W/m2
14:18 93.4 °F 56.4 °F 29.95 in West 6.0 mph 10.0 mph 29 % 0.00 in 902.00 W/m2
14:23 93.6 °F 58.4 °F 29.95 in WNW 8.0 mph 10.0 mph 31 % 0.00 in 895.00 W/m2
14:28 93.8 °F 56.8 °F 29.95 in NW 6.0 mph 9.0 mph 29 % 0.00 in 891.00 W/m2
14:33 93.9 °F 56.8 °F 29.94 in NNW 5.0 mph 10.0 mph 29 % 0.00 in 884.00 W/m2
14:38 93.8 °F 54.8 °F 29.94 in Calm   12.0 mph 27 % 0.00 in 881.00 W/m2
14:43 93.8 °F 55.8 °F 29.94 in Calm   10.0 mph 28 % 0.00 in 870.00 W/m2
14:48 93.8 °F 55.8 °F 29.94 in Calm   8.0 mph 28 % 0.00 in 863.00 W/m2
14:53 93.9 °F 56.8 °F 29.94 in NW 4.0 mph 17.0 mph 29 % 0.00 in 854.00 W/m2
14:58 93.9 °F 56.8 °F 29.94 in Calm   10.0 mph 29 % 0.00 in 847.00 W/m2
15:03 93.9 °F 54.9 °F 29.94 in Calm   9.0 mph 27 % 0.00 in 846.00 W/m2
15:08 94.0 °F 56.9 °F 29.94 in WNW 2.0 mph 7.0 mph 29 % 0.00 in 835.00 W/m2
15:13 94.0 °F 56.9 °F 29.94 in Calm   12.0 mph 29 % 0.00 in 821.00 W/m2
15:18 94.1 °F 55.0 °F 29.94 in Calm   10.0 mph 27 % 0.00 in 809.00 W/m2
15:23 94.1 °F 56.0 °F 29.93 in WNW 8.0 mph 8.0 mph 28 % 0.00 in 798.00 W/m2
15:28 94.0 °F 56.0 °F 29.93 in North 9.0 mph 10.0 mph 28 % 0.00 in 784.00 W/m2
15:33 93.9 °F 54.9 °F 29.93 in NW 1.0 mph 7.0 mph 27 % 0.00 in 780.00 W/m2
15:38 93.8 °F 54.8 °F 29.93 in NNW 6.0 mph 11.0 mph 27 % 0.00 in 766.00 W/m2
15:43 93.7 °F 54.7 °F 29.93 in NW 9.0 mph 12.0 mph 27 % 0.00 in 761.00 W/m2
15:48 93.7 °F 50.3 °F 29.93 in Calm   5.0 mph 23 % 0.00 in 758.00 W/m2
15:53 93.5 °F 51.3 °F 29.93 in NW 8.0 mph 10.0 mph 24 % 0.00 in 742.00 W/m2
15:58 93.4 °F 50.1 °F 29.93 in NW 6.0 mph 14.0 mph 23 % 0.00 in 722.00 W/m2
16:03 93.4 °F 52.3 °F 29.93 in North 2.0 mph 14.0 mph 25 % 0.00 in 708.00 W/m2
16:08 93.4 °F 53.4 °F 29.93 in NW 5.0 mph 12.0 mph 26 % 0.00 in 687.00 W/m2
16:13 93.3 °F 54.4 °F 29.93 in NNW 10.0 mph 10.0 mph 27 % 0.00 in 687.00 W/m2
16:18 93.2 °F 56.2 °F 29.93 in NW 1.0 mph 11.0 mph 29 % 0.00 in 670.00 W/m2
16:24 93.1 °F 56.2 °F 29.92 in NNW 5.0 mph 11.0 mph 29 % 0.00 in 657.00 W/m2
16:29 93.1 °F 56.2 °F 29.92 in NW 8.0 mph 8.0 mph 29 % 0.00 in 645.00 W/m2
16:34 93.0 °F 55.1 °F 29.92 in WSW 1.0 mph 9.0 mph 28 % 0.00 in 642.00 W/m2
16:39 93.0 °F 55.1 °F 29.92 in WNW 5.0 mph 6.0 mph 28 % 0.00 in 621.00 W/m2
16:44 92.9 °F 54.0 °F 29.92 in NNW 6.0 mph 11.0 mph 27 % 0.00 in 606.00 W/m2
16:49 92.8 °F 52.9 °F 29.92 in Calm   10.0 mph 26 % 0.00 in 598.00 W/m2
16:54 92.8 °F 52.9 °F 29.92 in Calm   5.0 mph 26 % 0.00 in 580.00 W/m2
16:59 92.7 °F 52.8 °F 29.92 in West 7.0 mph 10.0 mph 26 % 0.00 in 568.00 W/m2
17:04 92.7 °F 52.8 °F 29.92 in WNW 1.0 mph 5.0 mph 26 % 0.00 in 548.00 W/m2
17:09 92.6 °F 51.7 °F 29.92 in NW 2.0 mph 12.0 mph 25 % 0.00 in 536.00 W/m2
17:14 92.5 °F 50.5 °F 29.92 in NW 10.0 mph 11.0 mph 24 % 0.00 in 520.00 W/m2
17:19 92.4 °F 51.5 °F 29.91 in Calm   16.0 mph 25 % 0.00 in 508.00 W/m2
17:24 92.3 °F 51.4 °F 29.91 in NW 8.0 mph 12.0 mph 25 % 0.00 in 497.00 W/m2
17:29 92.2 °F 49.1 °F 29.91 in WNW 1.0 mph 13.0 mph 23 % 0.00 in 482.00 W/m2
17:34 92.1 °F 50.2 °F 29.91 in NW 1.0 mph 7.0 mph 24 % 0.00 in 466.00 W/m2
17:39 92.1 °F 52.3 °F 29.91 in West 5.0 mph 7.0 mph 26 % 0.00 in 455.00 W/m2
17:44 92.0 °F 53.3 °F 29.91 in West 2.0 mph 7.0 mph 27 % 0.00 in 438.00 W/m2
17:49 91.9 °F 53.2 °F 29.91 in Calm   8.0 mph 27 % 0.00 in 420.00 W/m2
17:54 91.8 °F 55.0 °F 29.91 in Calm   10.0 mph 29 % 0.00 in 408.00 W/m2
17:59 91.6 °F 53.9 °F 29.91 in Calm   14.0 mph 28 % 0.00 in 392.00 W/m2
18:04 91.5 °F 52.8 °F 29.91 in Calm   8.0 mph 27 % 0.00 in 376.00 W/m2
18:09 91.4 °F 52.8 °F 29.91 in West 1.0 mph 14.0 mph 27 % 0.00 in 360.00 W/m2
18:14 91.3 °F 52.7 °F 29.91 in Calm   10.0 mph 27 % 0.00 in 341.00 W/m2
18:19 91.1 °F 52.5 °F 29.91 in NNW 4.0 mph 8.0 mph 27 % 0.00 in 329.00 W/m2
18:24 91.0 °F 53.4 °F 29.91 in NNW 6.0 mph 7.0 mph 28 % 0.00 in 309.00 W/m2
18:29 90.7 °F 52.2 °F 29.90 in West 5.0 mph 11.0 mph 27 % 0.00 in 295.00 W/m2
18:34 90.6 °F 51.0 °F 29.90 in Calm   13.0 mph 26 % 0.00 in 279.00 W/m2
18:39 90.4 °F 50.9 °F 29.91 in WNW 5.0 mph 10.0 mph 26 % 0.00 in 262.00 W/m2
18:44 90.2 °F 52.7 °F 29.91 in NW 2.0 mph 5.0 mph 28 % 0.00 in 246.00 W/m2
18:49 90.0 °F 51.6 °F 29.91 in NW 4.0 mph 10.0 mph 27 % 0.00 in 229.00 W/m2
18:54 89.8 °F 51.4 °F 29.91 in NW 2.0 mph 9.0 mph 27 % 0.00 in 211.00 W/m2
18:59 89.5 °F 51.1 °F 29.91 in NW 5.0 mph 8.0 mph 27 % 0.00 in 190.00 W/m2
19:04 89.2 °F 52.8 °F 29.91 in Calm   15.0 mph 29 % 0.00 in 169.00 W/m2
19:09 88.9 °F 53.5 °F 29.91 in NW 6.0 mph 11.0 mph 30 % 0.00 in 156.00 W/m2
19:14 88.5 °F 53.1 °F 29.91 in NW 6.0 mph 9.0 mph 30 % 0.00 in 148.00 W/m2
19:19 88.1 °F 52.8 °F 29.91 in Calm   10.0 mph 30 % 0.00 in 123.00 W/m2
19:24 87.7 °F 52.5 °F 29.90 in NNW 5.0 mph 9.0 mph 30 % 0.00 in 107.00 W/m2
19:29 87.4 °F 53.1 °F 29.91 in NNW 2.0 mph 10.0 mph 31 % 0.00 in 95.00 W/m2
19:34 87.0 °F 52.7 °F 29.91 in NNW 6.0 mph 8.0 mph 31 % 0.00 in 81.00 W/m2
19:39 86.7 °F 52.5 °F 29.91 in Calm   8.0 mph 31 % 0.00 in 65.00 W/m2
19:44 86.4 °F 53.1 °F 29.91 in NNW 3.0 mph 6.0 mph 32 % 0.00 in 51.00 W/m2
19:49 86.0 °F 53.6 °F 29.91 in NNW 9.0 mph 9.0 mph 33 % 0.00 in 42.00 W/m2
19:54 85.6 °F 52.4 °F 29.91 in NNW 4.0 mph 7.0 mph 32 % 0.00 in 30.00 W/m2
19:59 85.2 °F 52.9 °F 29.91 in NNW 6.0 mph 9.0 mph 33 % 0.00 in 25.00 W/m2
20:04 84.8 °F 52.5 °F 29.91 in Calm   9.0 mph 33 % 0.00 in 21.00 W/m2
20:09 84.4 °F 52.2 °F 29.91 in NNW 7.0 mph 9.0 mph 33 % 0.00 in 18.00 W/m2
20:14 83.9 °F 53.3 °F 29.91 in NNW 6.0 mph 10.0 mph 35 % 0.00 in 16.00 W/m2
20:19 83.6 °F 51.5 °F 29.91 in NNW 5.0 mph 8.0 mph 33 % 0.00 in 12.00 W/m2
20:24 83.3 °F 52.0 °F 29.91 in NNW 1.0 mph 9.0 mph 34 % 0.00 in 11.00 W/m2
20:29 83.1 °F 51.0 °F 29.91 in Calm   8.0 mph 33 % 0.00 in 7.00 W/m2
20:34 82.9 °F 51.7 °F 29.91 in NNW 3.0 mph 8.0 mph 34 % 0.00 in 5.00 W/m2
20:39 82.7 °F 53.1 °F 29.91 in Calm   8.0 mph 36 % 0.00 in 0.00 W/m2
20:44 82.3 °F 51.9 °F 29.91 in North 7.0 mph 7.0 mph 35 % 0.00 in 0.00 W/m2
20:49 81.8 °F 49.9 °F 29.91 in North 4.0 mph 7.0 mph 33 % 0.00 in 0.00 W/m2
20:55 81.4 °F 50.4 °F 29.91 in North 5.0 mph 8.0 mph 34 % 0.00 in 0.00 W/m2
21:00 81.0 °F 50.0 °F 29.92 in North 5.0 mph 7.0 mph 34 % 0.00 in 0.00 W/m2
21:05 80.6 °F 50.5 °F 29.92 in North 1.0 mph 7.0 mph 35 % 0.00 in 0.00 W/m2
21:10 80.3 °F 50.2 °F 29.92 in North 1.0 mph 7.0 mph 35 % 0.00 in 0.00 W/m2
21:15 80.1 °F 51.5 °F 29.92 in Calm   6.0 mph 37 % 0.00 in 0.00 W/m2
21:20 79.8 °F 51.2 °F 29.92 in Calm   5.0 mph 37 % 0.00 in 0.00 W/m2
21:25 79.6 °F 51.8 °F 29.92 in Calm   7.0 mph 38 % 0.00 in 0.00 W/m2
21:30 79.4 °F 52.3 °F 29.92 in NNE 1.0 mph 6.0 mph 39 % 0.00 in 0.00 W/m2
21:35 79.2 °F 52.1 °F 29.92 in NNE 2.0 mph 5.0 mph 39 % 0.00 in 0.00 W/m2
21:40 79.0 °F 52.0 °F 29.92 in Calm   6.0 mph 39 % 0.00 in 0.00 W/m2
21:45 78.9 °F 51.9 °F 29.92 in Calm   3.0 mph 39 % 0.00 in 0.00 W/m2
21:50 78.7 °F 51.7 °F 29.92 in Calm   4.0 mph 39 % 0.00 in 0.00 W/m2
21:55 78.6 °F 51.6 °F 29.92 in Calm   2.0 mph 39 % 0.00 in 0.00 W/m2
22:00 78.5 °F 50.8 °F 29.92 in Calm   2.0 mph 38 % 0.00 in 0.00 W/m2
22:05 78.4 °F 50.7 °F 29.92 in Calm   2.0 mph 38 % 0.00 in 0.00 W/m2
22:10 78.2 °F 50.5 °F 29.92 in Calm   3.0 mph 38 % 0.00 in 0.00 W/m2
22:15 78.1 °F 50.5 °F 29.92 in Calm   4.0 mph 38 % 0.00 in 0.00 W/m2
22:20 77.9 °F 49.6 °F 29.92 in Calm   4.0 mph 37 % 0.00 in 0.00 W/m2
22:25 77.8 °F 48.7 °F 29.92 in Calm   5.0 mph 36 % 0.00 in 0.00 W/m2
22:30 77.7 °F 48.7 °F 29.92 in NE 2.0 mph 5.0 mph 36 % 0.00 in 0.00 W/m2
22:35 77.6 °F 48.6 °F 29.93 in NE 3.0 mph 5.0 mph 36 % 0.00 in 0.00 W/m2
22:40 77.5 °F 47.0 °F 29.93 in Calm   4.0 mph 34 % 0.00 in 0.00 W/m2
22:45 77.5 °F 47.0 °F 29.92 in NE 1.0 mph 4.0 mph 34 % 0.00 in 0.00 W/m2
22:50 77.5 °F 47.0 °F 29.93 in ENE 3.0 mph 6.0 mph 34 % 0.00 in 0.00 W/m2
22:55 77.5 °F 46.2 °F 29.92 in ENE 4.0 mph 6.0 mph 33 % 0.00 in 0.00 W/m2
23:00 77.5 °F 46.2 °F 29.92 in ENE 1.0 mph 5.0 mph 33 % 0.00 in 0.00 W/m2
23:05 77.5 °F 46.2 °F 29.92 in Calm   7.0 mph 33 % 0.00 in 0.00 W/m2
23:10 77.5 °F 46.2 °F 29.92 in ENE 4.0 mph 6.0 mph 33 % 0.00 in 0.00 W/m2
23:15 77.5 °F 46.2 °F 29.92 in ENE 2.0 mph 6.0 mph 33 % 0.00 in 0.00 W/m2
23:20 77.5 °F 46.2 °F 29.92 in ENE 4.0 mph 5.0 mph 33 % 0.00 in 0.00 W/m2
23:25 77.6 °F 45.4 °F 29.92 in ENE 3.0 mph 5.0 mph 32 % 0.00 in 0.00 W/m2
23:30 77.6 °F 45.4 °F 29.92 in ENE 2.0 mph 6.0 mph 32 % 0.00 in 0.00 W/m2
23:35 77.6 °F 45.4 °F 29.92 in Calm   3.0 mph 32 % 0.00 in 0.00 W/m2
23:40 77.5 °F 44.5 °F 29.92 in ENE 4.0 mph 5.0 mph 31 % 0.00 in 0.00 W/m2
23:46 77.5 °F 46.2 °F 29.92 in ENE 3.0 mph 5.0 mph 33 % 0.00 in 0.00 W/m2
23:51 77.4 °F 46.1 °F 29.92 in Calm     33 % 0.00 in 0.00 W/m2
23:56 77.3 °F 46.8 °F 29.91 in ENE 1.0 mph 1.0 mph 34 % 0.00 in 0.00 W/m2
Juneau County Weather
Compliments of Weather Underground - 4.5 mb
 WU-history PHP script courtesy of   Juneau County Weather.
powered by Cumulus v1.9.3 (1059)
Ambient Weather VWS v14.00
Top Contact Website Map Copyright © 2007 - 2018 Foresthillweather.com Never base important decisions on this or any weather information obtained from the Internet